Regional Weather Roundup
Issued by NWS Goodland, KS

Home | Current Version | Previous Version | Graphics & Text | Print | Product List | Glossary On
Versions: 1 2 3 4 5 6 7 8 9 10 11 12 13 14 15 16 17 18 19 20 21 22 23 24 25 26 27 28 29 30 31 32 33 34 35 36 37 38 39 40 41 42 43 44 45 46 47 48 49 50
000
ASUS43 KGLD 201859
RWRGLD

GOODLAND FORECAST AREA HOURLY WEATHER ROUNDUP
NATIONAL WEATHER SERVICE GOODLAND KS
1200 PM MST SAT JAN 20 2018

...OFFICIAL OBSERVATIONS...

CITY           SKY/WX    TMP DP  RH WIND       PRES   REMARKS
GOODLAND KS    SUNNY     48  29  47 N12       29.73F
HILL CITY KS   SUNNY     47  27  45 N10       29.74F
IMPERIAL NEB   SUNNY     47  30  51 NE13G22   29.78F
MCCOOK NEB     MOSUNNY   48  32  53 NE12G25   29.76F
AKRON CO       PTSUNNY   44  29  55 NE13      29.76F
BURLINGTON CO  SUNNY     49  28  44 N7        29.74F
LIMON CO       PTSUNNY   63  17  17 W7        29.73F
$$

...UNOFFICIAL OBSERVATIONS...

CITY           SKY/WX    TMP DP  RH WIND       PRES   REMARKS
NORTON KS      SUNNY     48  25  40 N9        29.74
SHARON SPRINGS   N/A     50  30  45 CALM        N/A
KIT CARSON CO    N/A     63  24  22 CALM        N/A
YUMA CO        FAIR      43  28  56 N9G16     29.77F
$$




USA.gov is the U.S. government's official web portal to all federal, state and local government web resources and services.